Location: New Canada
(47.1017°N, 68.5042°W)
Time: 04:43:47
(UTC+00:00)

COSMOS 1818 DEB - Pass Details

Date: 05 December 2023
Orbit: 754 x 785 km, 65.0° (Epoch: 12 November)

Event Time Altitude Azimuth Distance (km) Brightness Sun altitude
Rises 22:23:38 0° 290° (WNW) 3,268 ? -16.1°
Reaches altitude 10° 22:27:29 10° 318° (NW) 2,346 ? -16.7°
Maximum altitude 22:30:00 13° 346° (NNW) 2,132 ? -17.1°
Drops below altitude 10° 22:32:31 10° 14° (NNE) 2,351 ? -17.5°
Enters shadow 22:32:57 - 18° (NNE) 2,427 ? -17.6°
